Location: ??
(35.1714°N, 128.2806°E)
Time: 15:34:24
(UTC+00:00)

Cosmos 1980 Rocket - Pass Details

Date: 29 October 2020
Orbit: 831 x 848 km, 71.0° (Epoch: 01 December)

Event Time Altitude Azimuth Distance (km) Brightness Sun altitude
Exits shadow 19:38:50 - 350° (N) 2,890 4.9 -26.5°
Reaches altitude 10° 19:40:06 10° 354° (N) 2,442 4.5 -26.3°
Maximum altitude 19:45:20 40° 63° (ENE) 1,215 3.4 -25.2°
Drops below altitude 10° 19:50:33 10° 132° (SE) 2,436 5.2 -24.1°
Sets 19:53:08 0° 140° (SE) 3,369 5.9 -23.6°
